DateTimeUTC,F1_A11,F1_S11,BsB_S11,BsG_S11,BsR_S11,BbsB_S11,BbsG_S11,BbsR_S11,BaB_A11,BaG_A11,BaR_A11,Tu_S11,T_S11,Uu_S11,U_S11,P_S11,T1_A11
2021-10-07T23:00:00Z,00000200,21000000,,,,,,,-000.38,-000.70,-000.16,16.4,23.8,,00.0,0671.2,30.9
2021-10-07T23:01:00Z,00000200,21000000,,,,,,,0000.33,0000.33,0000.26,16.4,23.8,,00.0,0671.2,30.9
2021-10-07T23:02:00Z,00000200,21000000,,,,,,,-000.17,-000.22,-000.15,16.4,23.8,,00.0,0671.2,30.9
2021-10-07T23:03:00Z,00000200,61000000,,,,,,,-000.23,-000.06,0000.02,16.5,23.8,,00.0,0671.2,30.9
2021-10-07T23:04:00Z,00000200,41000000,0000.62,0000.23,-000.13,0000.92,0000.09,0000.12,0000.20,0000.20,0000.38,16.9,23.8,,00.0,0672.1,31.0
2021-10-07T23:05:00Z,00000200,01000000,-000.26,-000.08,0000.02,0000.69,0000.18,0000.13,0002.13,0001.83,0001.46,17.0,23.8,,00.0,0672.2,31.0
2021-10-07T23:06:00Z,00000200,01000000,0000.38,-000.06,-000.01,0000.72,0000.19,0000.03,-000.03,-000.20,-000.37,17.1,23.8,,00.0,0672.2,31.0
2021-10-07T23:07:00Z,00000200,01000000,0000.36,0000.11,0000.21,0000.51,-000.04,0000.22,-000.26,-000.42,0000.13,17.1,23.8,,00.0,0672.2,30.9
2021-10-07T23:08:00Z,00000200,01000000,-000.28,-000.14,0000.11,0000.31,0000.17,0000.05,0000.81,0001.12,0000.02,17.0,23.7,,00.0,0672.2,30.9
2021-10-07T23:09:00Z,00000200,01000000,0001.08,0000.11,0000.33,0000.24,-000.14,0000.18,-000.24,-000.65,-000.26,16.9,23.7,,00.0,0672.2,30.9
2021-10-07T23:10:00Z,00000200,01000000,-000.33,-000.09,0000.10,0001.03,0000.29,0000.24,-000.45,-000.11,-000.08,16.9,23.6,,00.0,0672.2,30.9
2021-10-07T23:11:00Z,00000200,01000000,-000.12,-000.13,0000.07,0000.85,-000.07,-000.14,0000.17,-000.35,0000.16,16.8,23.6,,00.0,0672.2,30.9
2021-10-07T23:12:00Z,00000200,01000000,0001.16,-000.22,0000.06,0000.26,0000.01,0000.14,0000.90,0000.91,0000.30,16.7,23.5,,00.0,0672.2,30.9
2021-10-07T23:13:00Z,00000200,01000000,0000.91,0000.01,0000.03,0000.32,-000.13,-000.22,-000.56,-000.23,-000.11,16.7,23.5,,00.0,0672.2,30.9
2021-10-07T23:14:00Z,00000200,01000000,0000.60,0000.27,0000.19,0000.52,-000.21,0000.10,0000.55,0000.07,0000.26,16.7,23.5,,00.0,0672.2,30.9
2021-10-07T23:15:00Z,00000200,01000000,0000.57,-000.03,0000.14,0000.81,-000.11,0000.22,-000.09,0000.21,0000.11,16.7,23.5,,00.0,0672.2,30.9
2021-10-07T23:16:00Z,00000200,01000000,0000.14,-000.15,0000.03,0001.28,0000.05,-000.19,-000.32,0000.15,-000.16,16.8,23.5,,00.0,0672.2,30.9
2021-10-07T23:17:00Z,00000200,01000000,0000.76,0000.01,0000.07,0000.52,0000.09,0000.14,0000.49,0000.22,-000.09,16.9,23.6,,00.0,0672.2,30.9
2021-10-07T23:18:00Z,00000200,01000000,0000.21,0000.37,-000.18,0000.43,0000.05,-000.26,0000.36,0000.02,0000.52,17.0,23.6,,00.0,0672.2,31.0
2021-10-07T23:19:00Z,00000200,01000000,0000.74,0000.06,0000.18,0000.71,-000.09,0000.09,-000.15,0000.10,0000.09,17.0,23.6,,00.0,0672.3,31.0
2021-10-07T23:20:00Z,00000200,01000000,0000.31,-000.19,0000.08,0000.58,0000.17,-000.15,0000.39,0000.56,0000.11,17.1,23.7,,00.0,0672.2,30.9
2021-10-07T23:21:00Z,00000200,01000000,0001.33,-000.08,-000.06,0000.47,0000.04,0000.37,-000.19,-000.33,-000.11,17.1,23.7,,00.0,0672.2,30.9
2021-10-07T23:22:00Z,00000200,01000000,0000.32,0000.26,-000.16,0000.63,0000.16,-000.12,-000.44,-000.62,-000.20,17.1,23.7,,00.0,0672.2,30.9
2021-10-07T23:23:00Z,00000200,01000000,0000.85,0000.20,-000.03,0001.42,0000.16,0000.31,-000.10,0000.24,-000.12,17.0,23.7,,00.0,0672.2,30.9
2021-10-07T23:24:00Z,00000200,01000000,0000.36,0000.04,0000.09,0000.62,-000.01,-000.36,0000.20,-000.02,-000.05,16.9,23.6,,00.0,0672.2,30.9
2021-10-07T23:25:00Z,00000200,01000000,0000.76,0000.05,-000.25,0000.41,0000.14,0000.03,0000.36,0000.26,0000.19,16.9,23.6,,00.0,0672.2,30.9
2021-10-07T23:26:00Z,00000200,01000000,0001.31,-000.22,0000.25,0000.21,0000.32,0000.20,0000.17,0000.04,0000.22,16.8,23.5,,00.0,0672.2,30.9
2021-10-07T23:27:00Z,00000200,01000000,0000.74,0000.10,-000.10,0000.26,-000.12,-000.23,0000.08,0000.11,-000.01,16.7,23.5,,00.0,0672.2,30.9
2021-10-07T23:28:00Z,00000200,01000000,-000.12,-000.28,-000.14,-000.02,0000.03,0000.15,-000.01,0000.35,0000.53,16.7,23.5,,00.0,0672.2,30.9
2021-10-07T23:29:00Z,00000200,01000000,0001.00,-000.21,-000.11,0000.57,0000.39,0000.14,0000.19,0000.20,-000.36,16.7,23.5,,00.0,0672.2,30.9
2021-10-07T23:30:00Z,00000200,01000000,0000.39,0000.35,0000.16,-000.25,0000.27,0000.37,0000.28,0000.24,0000.53,16.7,23.5,,00.0,0672.2,30.9
2021-10-07T23:31:00Z,00000200,01000000,0000.38,0000.09,-000.13,0000.26,0000.06,0000.13,0000.21,0000.14,-000.12,16.8,23.5,,00.0,0672.2,30.9
2021-10-07T23:32:00Z,00000200,01000000,-000.01,-000.00,0000.10,0000.55,-000.10,0000.37,0000.08,0000.15,0000.63,16.9,23.5,,00.0,0672.2,30.9
2021-10-07T23:33:00Z,00000200,01000000,0000.78,0000.23,0000.10,0000.18,0000.11,0000.37,0001.26,0001.05,0000.11,16.9,23.6,,00.0,0672.2,30.9
2021-10-07T23:34:00Z,00000200,01000000,0000.70,-000.06,0000.38,0000.54,-000.01,0000.16,-000.60,-000.34,-000.10,17.0,23.6,,00.0,0672.2,30.9
2021-10-07T23:35:00Z,00000200,01000000,0000.37,0000.00,0000.01,0000.20,0000.04,0000.08,0000.38,0000.40,0000.43,17.1,23.7,,00.0,0672.2,30.9
2021-10-07T23:36:00Z,00000200,01000000,0000.31,-000.03,-000.12,0000.11,0000.19,0000.30,-000.32,-000.44,-000.23,17.1,23.7,,00.0,0672.2,30.9
2021-10-07T23:37:00Z,00000200,01000000,0000.13,-000.20,-000.01,0000.84,0000.26,-000.04,-000.07,-000.09,-000.46,17.1,23.7,,00.0,0672.2,30.9
2021-10-07T23:38:00Z,00000200,01000000,0000.50,-000.13,-000.06,0000.82,0000.18,-000.02,-000.04,-000.04,0000.37,17.0,23.6,,00.0,0672.2,30.9
2021-10-07T23:39:00Z,00000200,01000000,0000.24,0000.17,0000.08,0000.98,0000.04,0000.10,0000.19,-000.13,0000.05,16.9,23.6,,00.0,0672.2,30.9
2021-10-07T23:40:00Z,00000200,01000000,-000.09,-000.18,0000.18,0000.44,0000.04,-000.11,0000.08,0000.46,-000.08,16.9,23.6,,00.0,0672.2,30.9
2021-10-07T23:41:00Z,00000200,01000000,0000.95,0000.07,0000.26,0000.43,-000.14,0000.05,0008.45,0006.93,0005.19,16.8,23.5,,00.0,0672.1,30.9
2021-10-07T23:42:00Z,00000200,01000000,-000.33,0000.51,0000.24,0001.41,0000.26,-000.07,0003.74,0003.31,0002.60,16.7,23.5,,00.0,0672.2,30.9
2021-10-07T23:43:00Z,00000200,01000000,0000.62,0000.08,-000.02,0000.69,-000.16,0000.02,0003.68,0003.34,0002.85,16.7,23.5,,00.0,0672.1,30.9
2021-10-07T23:44:00Z,00000200,01000000,-000.01,-000.12,0000.02,0000.37,-000.19,-000.04,0002.96,0002.95,0002.03,16.7,23.5,,00.0,0672.1,30.9
2021-10-07T23:45:00Z,00000200,01000000,0000.42,-000.07,0000.21,0000.45,-000.29,0000.21,0002.10,0002.26,0001.14,16.7,23.4,,00.0,0672.1,30.9
2021-10-07T23:46:00Z,00000200,01000000,-000.03,0000.37,0000.13,0000.01,0000.11,0000.19,0001.54,0001.25,0001.30,16.8,23.5,,00.0,0672.1,30.9
2021-10-07T23:47:00Z,00000200,01000000,-000.59,-000.12,0000.01,0000.56,0000.00,0000.12,0001.32,0000.77,0000.62,16.9,23.5,,00.0,0672.1,30.9
2021-10-07T23:48:00Z,00000200,01000000,0000.28,0000.11,0000.06,0000.26,-000.01,0000.04,0000.09,0000.65,0000.21,16.9,23.5,,00.0,0672.1,30.9
2021-10-07T23:49:00Z,00000200,01000000,0000.14,0000.06,-000.10,0000.38,0000.23,0000.00,0000.47,0000.12,0000.54,17.0,23.6,,00.0,0672.1,30.9
2021-10-07T23:50:00Z,00000200,01000000,0000.37,0000.05,-000.06,0000.28,-000.02,0000.32,0000.84,0000.83,0000.28,17.1,23.6,,00.0,0672.1,30.9
2021-10-07T23:51:00Z,00000200,01000000,0000.88,-000.11,0000.22,0000.26,0000.33,0000.30,0002.63,0002.39,0002.10,17.1,23.7,,00.0,0672.1,30.9
2021-10-07T23:52:00Z,00000200,01000000,0000.45,0000.44,0000.23,0001.09,-000.02,0000.15,0009.58,0008.54,0006.06,17.1,23.7,,00.0,0672.1,30.9
2021-10-07T23:53:00Z,00000200,01000000,0000.42,0000.26,-000.01,0000.64,0000.08,-000.03,0009.65,0008.33,0006.22,17.0,23.6,,00.0,0672.1,30.9
2021-10-07T23:54:00Z,00000200,01000000,0001.01,-000.25,-000.05,0000.47,-000.04,0000.12,0003.46,0003.53,0002.47,16.9,23.6,,00.0,0672.1,30.9
2021-10-07T23:55:00Z,00000200,01000000,0001.29,0000.28,0000.28,0000.92,0000.13,0000.04,0015.94,0014.12,0010.69,16.9,23.5,,00.0,0672.1,30.9
2021-10-07T23:56:00Z,00000200,01000000,0000.16,0000.32,0000.17,0001.02,-000.01,-000.02,0010.28,0008.96,0007.12,16.8,23.5,,00.0,0672.1,30.9
2021-10-07T23:57:00Z,00000200,41000000,,,,,,,0000.84,0000.44,0000.40,16.8,23.5,,00.0,0672.2,30.9
2021-10-07T23:58:00Z,00000200,61000000,,,,,,,-000.44,0000.48,-000.09,16.4,23.6,,00.0,0671.1,30.9
2021-10-07T23:59:00Z,00000200,21000000,,,,,,,0000.31,-000.28,0000.03,16.3,23.7,,00.0,0671.1,30.9
